Year,Month,Day,Hour,Minute,Value (Times are PST for temperature in C)
2017,06,23,00,00,13.00
2017,06,23,00,01,13.00
2017,06,23,00,02,13.00
2017,06,23,00,03,12.90
2017,06,23,00,04,12.90
2017,06,23,00,05,12.90
2017,06,23,00,06,12.80
2017,06,23,00,07,12.80
2017,06,23,00,08,12.80
2017,06,23,00,09,12.80
2017,06,23,00,10,12.80
2017,06,23,00,11,12.80
2017,06,23,00,12,12.70
2017,06,23,00,13,12.70
2017,06,23,00,14,12.70
2017,06,23,00,15,12.70
2017,06,23,00,16,12.70
2017,06,23,00,17,12.70
2017,06,23,00,18,12.60
2017,06,23,00,19,12.60
2017,06,23,00,20,12.60
2017,06,23,00,21,12.60
2017,06,23,00,22,12.60
2017,06,23,00,23,12.60
2017,06,23,00,24,12.60
2017,06,23,00,25,12.60
2017,06,23,00,26,12.60
2017,06,23,00,27,12.60
2017,06,23,00,28,12.60
2017,06,23,00,29,12.60
2017,06,23,00,30,12.60
2017,06,23,00,31,12.60
2017,06,23,00,32,12.60
2017,06,23,00,33,12.60
2017,06,23,00,34,12.60
2017,06,23,00,35,12.50
2017,06,23,00,36,12.60
2017,06,23,00,37,12.60
2017,06,23,00,38,12.60
2017,06,23,00,39,12.60
2017,06,23,00,40,12.70
2017,06,23,00,41,12.80
2017,06,23,00,42,12.90
2017,06,23,00,43,12.90
2017,06,23,00,44,12.90
2017,06,23,00,45,12.90
2017,06,23,00,46,12.90
2017,06,23,00,47,12.80
2017,06,23,00,48,12.80
2017,06,23,00,49,12.80
2017,06,23,00,50,12.80
2017,06,23,00,51,12.70
2017,06,23,00,52,12.70
2017,06,23,00,53,12.70
2017,06,23,00,54,12.60
2017,06,23,00,55,12.60
2017,06,23,00,56,12.60
2017,06,23,00,57,12.50
2017,06,23,00,58,12.50
2017,06,23,00,59,12.60
2017,06,23,01,00,12.70
2017,06,23,01,01,12.80
2017,06,23,01,02,13.00
2017,06,23,01,03,13.20
2017,06,23,01,04,13.40
2017,06,23,01,05,13.60
2017,06,23,01,06,13.80
2017,06,23,01,07,14.00
2017,06,23,01,08,14.20
2017,06,23,01,09,14.40
2017,06,23,01,10,14.50
2017,06,23,01,11,14.60
2017,06,23,01,12,14.70
2017,06,23,01,13,14.80
2017,06,23,01,14,14.90
2017,06,23,01,15,15.00
2017,06,23,01,16,15.00
2017,06,23,01,17,15.00
2017,06,23,01,18,15.00
2017,06,23,01,19,15.00
2017,06,23,01,20,15.10
2017,06,23,01,21,15.20
2017,06,23,01,22,15.20
2017,06,23,01,23,15.30
2017,06,23,01,24,15.40
2017,06,23,01,25,15.50
2017,06,23,01,26,15.50
2017,06,23,01,27,15.60
2017,06,23,01,28,15.70
2017,06,23,01,29,15.70
2017,06,23,01,30,15.70
2017,06,23,01,31,15.80
2017,06,23,01,32,15.80
2017,06,23,01,33,15.80
2017,06,23,01,34,15.90
2017,06,23,01,35,15.90
2017,06,23,01,36,15.90
2017,06,23,01,37,15.90
2017,06,23,01,38,15.90
2017,06,23,01,39,15.90
2017,06,23,01,40,15.90
2017,06,23,01,41,15.90
2017,06,23,01,42,15.90
2017,06,23,01,43,15.90
2017,06,23,01,44,15.90
2017,06,23,01,45,15.80
2017,06,23,01,46,15.80
2017,06,23,01,47,15.80
2017,06,23,01,48,15.80
2017,06,23,01,49,15.80
2017,06,23,01,50,15.80
2017,06,23,01,51,15.80
2017,06,23,01,52,15.80
2017,06,23,01,53,15.80
2017,06,23,01,54,15.80
2017,06,23,01,55,15.80
2017,06,23,01,56,15.80
2017,06,23,01,57,15.80
2017,06,23,01,58,15.80
2017,06,23,01,59,15.80
2017,06,23,02,00,15.80
2017,06,23,02,01,15.80
2017,06,23,02,02,15.80
2017,06,23,02,03,15.80
2017,06,23,02,04,15.80
2017,06,23,02,05,15.80
2017,06,23,02,06,15.70
2017,06,23,02,07,15.70
2017,06,23,02,08,15.70
2017,06,23,02,09,15.60
2017,06,23,02,10,15.60
2017,06,23,02,11,15.60
2017,06,23,02,12,15.70
2017,06,23,02,13,15.70
2017,06,23,02,14,15.70
2017,06,23,02,15,15.70
2017,06,23,02,16,15.70
2017,06,23,02,17,15.70
2017,06,23,02,18,15.70
2017,06,23,02,19,15.70
2017,06,23,02,20,15.70
2017,06,23,02,21,15.70
2017,06,23,02,22,15.70
2017,06,23,02,23,15.70
2017,06,23,02,24,15.70
2017,06,23,02,25,15.70
2017,06,23,02,26,15.60
2017,06,23,02,27,15.70
2017,06,23,02,28,15.70
2017,06,23,02,29,15.70
2017,06,23,02,30,15.70
2017,06,23,02,31,15.70
2017,06,23,02,32,15.70
2017,06,23,02,33,15.70
2017,06,23,02,34,15.70
2017,06,23,02,35,15.70
2017,06,23,02,36,15.60
2017,06,23,02,37,15.60
2017,06,23,02,38,15.60
2017,06,23,02,39,15.60
2017,06,23,02,40,15.60
2017,06,23,02,41,15.60
2017,06,23,02,42,15.60
2017,06,23,02,43,15.60
2017,06,23,02,44,15.60
2017,06,23,02,45,15.60
2017,06,23,02,46,15.60
2017,06,23,02,47,15.60
2017,06,23,02,48,15.60
2017,06,23,02,49,15.50
2017,06,23,02,50,15.50
2017,06,23,02,51,15.50
2017,06,23,02,52,15.50
2017,06,23,02,53,15.50
2017,06,23,02,54,15.40
2017,06,23,02,55,15.40
2017,06,23,02,56,15.40
2017,06,23,02,57,15.40
2017,06,23,02,58,15.40
2017,06,23,02,59,15.40
2017,06,23,03,00,15.40
2017,06,23,03,01,15.40
2017,06,23,03,02,15.40
2017,06,23,03,03,15.30
2017,06,23,03,04,15.40
2017,06,23,03,05,15.40
2017,06,23,03,06,15.40
2017,06,23,03,07,15.30
2017,06,23,03,08,15.30
2017,06,23,03,09,15.30
2017,06,23,03,10,15.30
2017,06,23,03,11,15.30
2017,06,23,03,12,15.30
2017,06,23,03,13,15.30
2017,06,23,03,14,15.30
2017,06,23,03,15,15.30
2017,06,23,03,16,15.30
2017,06,23,03,17,15.20
2017,06,23,03,18,15.20
2017,06,23,03,19,15.20
2017,06,23,03,20,15.20
2017,06,23,03,21,15.20
2017,06,23,03,22,15.20
2017,06,23,03,23,15.20
2017,06,23,03,24,15.20
2017,06,23,03,25,15.10
2017,06,23,03,26,15.00
2017,06,23,03,27,15.00
2017,06,23,03,28,15.00
2017,06,23,03,29,15.00
2017,06,23,03,30,15.00
2017,06,23,03,31,15.00
2017,06,23,03,32,14.90
2017,06,23,03,33,14.80
2017,06,23,03,34,14.70
2017,06,23,03,35,14.70
2017,06,23,03,36,14.60
2017,06,23,03,37,14.50
2017,06,23,03,38,14.30
2017,06,23,03,39,14.20
2017,06,23,03,40,14.10
2017,06,23,03,41,13.90
2017,06,23,03,42,13.80
2017,06,23,03,43,13.70
2017,06,23,03,44,13.70
2017,06,23,03,45,13.60
2017,06,23,03,46,13.60
2017,06,23,03,47,13.50
2017,06,23,03,48,13.50
2017,06,23,03,49,13.40
2017,06,23,03,50,13.40
2017,06,23,03,51,13.40
2017,06,23,03,52,13.40
2017,06,23,03,53,13.40
2017,06,23,03,54,13.50
2017,06,23,03,55,13.50
2017,06,23,03,56,13.50
2017,06,23,03,57,13.50
2017,06,23,03,58,13.50
2017,06,23,03,59,13.40
2017,06,23,04,00,13.40
2017,06,23,04,01,13.40
2017,06,23,04,02,13.30
2017,06,23,04,03,13.30
2017,06,23,04,04,13.30
2017,06,23,04,05,13.30
2017,06,23,04,06,13.30
2017,06,23,04,07,13.30
2017,06,23,04,08,13.30
2017,06,23,04,09,13.30
2017,06,23,04,10,13.30
2017,06,23,04,11,13.20
2017,06,23,04,12,13.20
2017,06,23,04,13,13.20
2017,06,23,04,14,13.10
2017,06,23,04,15,13.00
2017,06,23,04,16,13.00
2017,06,23,04,17,12.90
2017,06,23,04,18,12.80
2017,06,23,04,19,12.70
2017,06,23,04,20,12.60
2017,06,23,04,21,12.60
2017,06,23,04,22,12.50
2017,06,23,04,23,12.40
2017,06,23,04,24,12.40
2017,06,23,04,25,12.30
2017,06,23,04,26,12.30
2017,06,23,04,27,12.20
2017,06,23,04,28,12.20
2017,06,23,04,29,12.20
2017,06,23,04,30,12.20
2017,06,23,04,31,12.20
2017,06,23,04,32,12.20
2017,06,23,04,33,12.20
2017,06,23,04,34,12.20
2017,06,23,04,35,12.10
2017,06,23,04,36,12.10
2017,06,23,04,37,12.20
2017,06,23,04,38,12.30
2017,06,23,04,39,12.40
2017,06,23,04,40,12.50
2017,06,23,04,41,12.60
2017,06,23,04,42,12.70
2017,06,23,04,43,12.70
2017,06,23,04,44,12.80
2017,06,23,04,45,12.80
2017,06,23,04,46,12.80
2017,06,23,04,47,12.90
2017,06,23,04,48,12.80
2017,06,23,04,49,12.80
2017,06,23,04,50,12.80
2017,06,23,04,51,12.80
2017,06,23,04,52,12.80
2017,06,23,04,53,12.90
2017,06,23,04,54,12.80
2017,06,23,04,55,12.80
2017,06,23,04,56,12.80
2017,06,23,04,57,12.90
2017,06,23,04,58,12.90
2017,06,23,04,59,13.00
2017,06,23,05,00,13.10
2017,06,23,05,01,13.10
2017,06,23,05,02,13.20
2017,06,23,05,03,13.30
2017,06,23,05,04,13.30
2017,06,23,05,05,13.40
2017,06,23,05,06,13.40
2017,06,23,05,07,13.50
2017,06,23,05,08,13.50
2017,06,23,05,09,13.50
2017,06,23,05,10,13.60
2017,06,23,05,11,13.60
2017,06,23,05,12,13.60
2017,06,23,05,13,13.60
2017,06,23,05,14,13.60
2017,06,23,05,15,13.50
2017,06,23,05,16,13.50
2017,06,23,05,17,13.50
2017,06,23,05,18,13.40
2017,06,23,05,19,13.40
2017,06,23,05,20,13.40
2017,06,23,05,21,13.30
2017,06,23,05,22,13.30
2017,06,23,05,23,13.20
2017,06,23,05,24,13.10
2017,06,23,05,25,13.00
2017,06,23,05,26,13.00
2017,06,23,05,27,12.90
2017,06,23,05,28,12.90
2017,06,23,05,29,12.90
2017,06,23,05,30,12.90
2017,06,23,05,31,12.90
2017,06,23,05,32,12.90
2017,06,23,05,33,13.00
2017,06,23,05,34,13.00
2017,06,23,05,35,13.00
2017,06,23,05,36,13.10
2017,06,23,05,37,13.10
2017,06,23,05,38,13.20
2017,06,23,05,39,13.20
2017,06,23,05,40,13.30
2017,06,23,05,41,13.30
2017,06,23,05,42,13.30
2017,06,23,05,43,13.30
2017,06,23,05,44,13.40
2017,06,23,05,45,13.40
2017,06,23,05,46,13.40
2017,06,23,05,47,13.40
2017,06,23,05,48,13.50
2017,06,23,05,49,13.50
2017,06,23,05,50,13.60
2017,06,23,05,51,13.60
2017,06,23,05,52,13.70
2017,06,23,05,53,13.70
2017,06,23,05,54,13.80
2017,06,23,05,55,13.80
2017,06,23,05,56,13.90
2017,06,23,05,57,13.90
2017,06,23,05,58,13.90
2017,06,23,05,59,14.00
2017,06,23,06,00,14.00
2017,06,23,06,01,14.10
2017,06,23,06,02,14.10
2017,06,23,06,03,14.10
2017,06,23,06,04,14.20
2017,06,23,06,05,14.20
2017,06,23,06,06,14.20
2017,06,23,06,07,14.20
2017,06,23,06,08,14.30
2017,06,23,06,09,14.30
2017,06,23,06,10,14.20
2017,06,23,06,11,14.30
2017,06,23,06,12,14.30
2017,06,23,06,13,14.30
2017,06,23,06,14,14.30
2017,06,23,06,15,14.30
2017,06,23,06,16,14.30
2017,06,23,06,17,14.40
2017,06,23,06,18,14.40
2017,06,23,06,19,14.40
2017,06,23,06,20,14.40
2017,06,23,06,21,14.50
2017,06,23,06,22,14.50
2017,06,23,06,23,14.60
2017,06,23,06,24,14.60
2017,06,23,06,25,14.60
2017,06,23,06,26,14.70
2017,06,23,06,27,14.70
2017,06,23,06,28,14.70
2017,06,23,06,29,14.80
2017,06,23,06,30,14.80
2017,06,23,06,31,14.80
2017,06,23,06,32,14.90
2017,06,23,06,33,14.90
2017,06,23,06,34,15.00
2017,06,23,06,35,15.00
2017,06,23,06,36,15.00
2017,06,23,06,37,15.00
2017,06,23,06,38,15.00
2017,06,23,06,39,15.00
2017,06,23,06,40,15.00
2017,06,23,06,41,15.00
2017,06,23,06,42,15.10
2017,06,23,06,43,15.10
2017,06,23,06,44,15.20
2017,06,23,06,45,15.20
2017,06,23,06,46,15.30
2017,06,23,06,47,15.30
2017,06,23,06,48,15.30
2017,06,23,06,49,15.30
2017,06,23,06,50,15.40
2017,06,23,06,51,15.40
2017,06,23,06,52,15.40
2017,06,23,06,53,15.50
2017,06,23,06,54,15.50
2017,06,23,06,55,15.50
2017,06,23,06,56,15.60
2017,06,23,06,57,15.60
2017,06,23,06,58,15.70
2017,06,23,06,59,15.70
2017,06,23,07,00,15.70
2017,06,23,07,01,15.80
2017,06,23,07,02,15.80
2017,06,23,07,03,15.80
2017,06,23,07,04,15.90
2017,06,23,07,05,15.90
2017,06,23,07,06,15.90
2017,06,23,07,07,16.00
2017,06,23,07,08,16.00
2017,06,23,07,09,16.10
2017,06,23,07,10,16.10
2017,06,23,07,11,16.10
2017,06,23,07,12,16.20
2017,06,23,07,13,16.20
2017,06,23,07,14,16.20
2017,06,23,07,15,16.20
2017,06,23,07,16,16.20
2017,06,23,07,17,16.30
2017,06,23,07,18,16.30
2017,06,23,07,19,16.30
2017,06,23,07,20,16.30
2017,06,23,07,21,16.30
2017,06,23,07,22,16.30
2017,06,23,07,23,16.30
2017,06,23,07,24,16.30
2017,06,23,07,25,16.40
2017,06,23,07,26,16.40
2017,06,23,07,27,16.40
2017,06,23,07,28,16.40
2017,06,23,07,29,16.50
2017,06,23,07,30,16.50
2017,06,23,07,31,16.50
2017,06,23,07,32,16.50
2017,06,23,07,33,16.50
2017,06,23,07,34,16.50
2017,06,23,07,35,16.50
2017,06,23,07,36,16.50
2017,06,23,07,37,16.60
2017,06,23,07,38,16.60
2017,06,23,07,39,16.60
2017,06,23,07,40,16.60
2017,06,23,07,41,16.60
2017,06,23,07,42,16.60
2017,06,23,07,43,16.60
2017,06,23,07,44,16.60
2017,06,23,07,45,16.60
2017,06,23,07,46,16.60
2017,06,23,07,47,16.70
2017,06,23,07,48,16.70
2017,06,23,07,49,16.70
2017,06,23,07,50,16.70
2017,06,23,07,51,16.80
2017,06,23,07,52,16.80
2017,06,23,07,53,16.90
2017,06,23,07,54,16.90
2017,06,23,07,55,17.00
2017,06,23,07,56,17.00
2017,06,23,07,57,17.10
2017,06,23,07,58,17.10
2017,06,23,07,59,17.10
2017,06,23,08,00,17.10
2017,06,23,08,01,17.10
2017,06,23,08,02,17.20
2017,06,23,08,03,17.20
2017,06,23,08,04,17.20
2017,06,23,08,05,17.20
2017,06,23,08,06,17.20
2017,06,23,08,07,17.20
2017,06,23,08,08,17.20
2017,06,23,08,09,17.20
2017,06,23,08,10,17.30
2017,06,23,08,11,17.30
2017,06,23,08,12,17.30
2017,06,23,08,13,17.30
2017,06,23,08,14,17.30
2017,06,23,08,15,17.40
2017,06,23,08,16,17.30
2017,06,23,08,17,17.30
2017,06,23,08,18,17.30
2017,06,23,08,19,17.30
2017,06,23,08,20,17.30
2017,06,23,08,21,17.30
2017,06,23,08,22,17.40
2017,06,23,08,23,17.40
2017,06,23,08,24,17.30
2017,06,23,08,25,17.30
2017,06,23,08,26,17.30
2017,06,23,08,27,17.30
2017,06,23,08,28,17.30
2017,06,23,08,29,17.30
2017,06,23,08,30,17.30
2017,06,23,08,31,17.30
2017,06,23,08,32,17.40
2017,06,23,08,33,17.40
2017,06,23,08,34,17.50
2017,06,23,08,35,17.50
2017,06,23,08,36,17.60
2017,06,23,08,37,17.60
2017,06,23,08,38,17.70
2017,06,23,08,39,17.70
2017,06,23,08,40,17.80
2017,06,23,08,41,17.80
2017,06,23,08,42,17.90
2017,06,23,08,43,17.90
2017,06,23,08,44,17.90
2017,06,23,08,45,17.90
2017,06,23,08,46,17.90
2017,06,23,08,47,17.90
2017,06,23,08,48,17.80
2017,06,23,08,49,17.80
2017,06,23,08,50,17.70
2017,06,23,08,51,17.70
2017,06,23,08,52,17.70
2017,06,23,08,53,17.70
2017,06,23,08,54,17.60
2017,06,23,08,55,17.60
2017,06,23,08,56,17.70
2017,06,23,08,57,17.70
2017,06,23,08,58,17.70
2017,06,23,08,59,17.70
2017,06,23,09,00,17.70
2017,06,23,09,01,17.70
2017,06,23,09,02,17.70
2017,06,23,09,03,17.60
2017,06,23,09,04,17.60
2017,06,23,09,05,17.50
2017,06,23,09,06,17.50
2017,06,23,09,07,17.40
2017,06,23,09,08,17.40
2017,06,23,09,09,17.40
2017,06,23,09,10,17.50
2017,06,23,09,11,17.50
2017,06,23,09,12,17.60
2017,06,23,09,13,17.70
2017,06,23,09,14,17.80
2017,06,23,09,15,17.80
2017,06,23,09,16,17.90
2017,06,23,09,17,17.90
2017,06,23,09,18,17.90
2017,06,23,09,19,18.00
2017,06,23,09,20,18.00
2017,06,23,09,21,18.00
2017,06,23,09,22,17.90
2017,06,23,09,23,17.90
2017,06,23,09,24,17.90
2017,06,23,09,25,17.90
2017,06,23,09,26,17.90
2017,06,23,09,27,17.90
2017,06,23,09,28,17.90
2017,06,23,09,29,17.80
2017,06,23,09,30,17.80
2017,06,23,09,31,17.80
2017,06,23,09,32,17.80
2017,06,23,09,33,17.80
2017,06,23,09,34,17.80
2017,06,23,09,35,17.90
2017,06,23,09,36,17.90
2017,06,23,09,37,17.90
2017,06,23,09,38,17.90
2017,06,23,09,39,18.00
2017,06,23,09,40,18.00
2017,06,23,09,41,18.00
2017,06,23,09,42,18.00
2017,06,23,09,43,18.00
2017,06,23,09,44,18.10
2017,06,23,09,45,18.10
2017,06,23,09,46,18.20
2017,06,23,09,47,18.20
2017,06,23,09,48,18.20
2017,06,23,09,49,18.20
2017,06,23,09,50,18.20
2017,06,23,09,51,18.30
2017,06,23,09,52,18.30
2017,06,23,09,53,18.30
2017,06,23,09,54,18.40
2017,06,23,09,55,18.40
2017,06,23,09,56,18.40
2017,06,23,09,57,18.40
2017,06,23,09,58,18.40
2017,06,23,09,59,18.50
2017,06,23,10,00,18.50
2017,06,23,10,01,18.50
2017,06,23,10,02,18.50
2017,06,23,10,03,18.50
2017,06,23,10,04,18.50
2017,06,23,10,05,18.60
2017,06,23,10,06,18.60
2017,06,23,10,07,18.50
2017,06,23,10,08,18.40
2017,06,23,10,09,18.40
2017,06,23,10,10,18.30
2017,06,23,10,11,18.30
2017,06,23,10,12,18.40
2017,06,23,10,13,18.40
2017,06,23,10,14,18.50
2017,06,23,10,15,18.60
2017,06,23,10,16,18.80
2017,06,23,10,17,18.80
2017,06,23,10,18,18.90
2017,06,23,10,19,18.90
2017,06,23,10,20,19.00
2017,06,23,10,21,18.90
2017,06,23,10,22,18.90
2017,06,23,10,23,18.80
2017,06,23,10,24,18.80
2017,06,23,10,25,18.80
2017,06,23,10,26,18.80
2017,06,23,10,27,18.80
2017,06,23,10,28,18.90
2017,06,23,10,29,18.90
2017,06,23,10,30,19.00
2017,06,23,10,31,19.10
2017,06,23,10,32,19.10
2017,06,23,10,33,19.20
2017,06,23,10,34,19.20
2017,06,23,10,35,19.20
2017,06,23,10,36,19.10
2017,06,23,10,37,19.00
2017,06,23,10,38,19.00
2017,06,23,10,39,18.90
2017,06,23,10,40,18.90
2017,06,23,10,41,18.80
2017,06,23,10,42,18.80
2017,06,23,10,43,18.80
2017,06,23,10,44,18.80
2017,06,23,10,45,18.80
2017,06,23,10,46,18.80
2017,06,23,10,47,18.90
2017,06,23,10,48,18.90
2017,06,23,10,49,19.00
2017,06,23,10,50,19.00
2017,06,23,10,51,19.10
2017,06,23,10,52,19.10
2017,06,23,10,53,19.10
2017,06,23,10,54,19.10
2017,06,23,10,55,19.20
2017,06,23,10,56,19.30
2017,06,23,10,57,19.30
2017,06,23,10,58,19.30
2017,06,23,10,59,19.30
2017,06,23,11,00,19.40
2017,06,23,11,01,19.40
2017,06,23,11,02,19.50
2017,06,23,11,03,19.60
2017,06,23,11,04,19.70
2017,06,23,11,05,19.80
2017,06,23,11,06,19.80
2017,06,23,11,07,19.90
2017,06,23,11,08,19.90
2017,06,23,11,09,19.90
2017,06,23,11,10,19.80
2017,06,23,11,11,19.70
2017,06,23,11,12,19.70
2017,06,23,11,13,19.60
2017,06,23,11,14,19.60
2017,06,23,11,15,19.60
2017,06,23,11,16,19.70
2017,06,23,11,17,19.70
2017,06,23,11,18,19.80
2017,06,23,11,19,19.80
2017,06,23,11,20,19.80
2017,06,23,11,21,19.80
2017,06,23,11,22,19.80
2017,06,23,11,23,19.80
2017,06,23,11,24,19.90
2017,06,23,11,25,19.90
2017,06,23,11,26,19.90
2017,06,23,11,27,19.80
2017,06,23,11,28,19.80
2017,06,23,11,29,19.80
2017,06,23,11,30,19.70
2017,06,23,11,31,19.70
2017,06,23,11,32,19.70
2017,06,23,11,33,19.70
2017,06,23,11,34,19.70
2017,06,23,11,35,19.80
2017,06,23,11,36,19.80
2017,06,23,11,37,19.80
2017,06,23,11,38,19.90
2017,06,23,11,39,19.90
2017,06,23,11,40,19.80
2017,06,23,11,41,19.80
2017,06,23,11,42,19.80
2017,06,23,11,43,19.70
2017,06,23,11,44,19.60
2017,06,23,11,45,19.50
2017,06,23,11,46,19.40
2017,06,23,11,47,19.40
2017,06,23,11,48,19.40
2017,06,23,11,49,19.40
2017,06,23,11,50,19.40
2017,06,23,11,51,19.50
2017,06,23,11,52,19.50
2017,06,23,11,53,19.60
2017,06,23,11,54,19.60
2017,06,23,11,55,19.70
2017,06,23,11,56,19.70
2017,06,23,11,57,19.80
2017,06,23,11,58,19.80
2017,06,23,11,59,19.90
2017,06,23,12,00,19.90
2017,06,23,12,01,20.00
2017,06,23,12,02,20.00
2017,06,23,12,03,20.00
2017,06,23,12,04,20.00
2017,06,23,12,05,20.00
2017,06,23,12,06,20.10
2017,06,23,12,07,20.10
2017,06,23,12,08,20.20
2017,06,23,12,09,20.20
2017,06,23,12,10,20.30
2017,06,23,12,11,20.30
2017,06,23,12,12,20.40
2017,06,23,12,13,20.50
2017,06,23,12,14,20.50
2017,06,23,12,15,20.50
2017,06,23,12,16,20.50
2017,06,23,12,17,20.60
2017,06,23,12,18,20.60
2017,06,23,12,19,20.70
2017,06,23,12,20,20.70
2017,06,23,12,21,20.80
2017,06,23,12,22,20.80
2017,06,23,12,23,20.90
2017,06,23,12,24,20.90
2017,06,23,12,25,20.80
2017,06,23,12,26,20.80
2017,06,23,12,27,20.70
2017,06,23,12,28,20.80
2017,06,23,12,29,20.80
2017,06,23,12,30,20.90
2017,06,23,12,31,20.90
2017,06,23,12,32,20.90
2017,06,23,12,33,20.90
2017,06,23,12,34,20.90
2017,06,23,12,35,20.80
2017,06,23,12,36,20.80
2017,06,23,12,37,20.80
2017,06,23,12,38,20.80
2017,06,23,12,39,20.90
2017,06,23,12,40,20.90
2017,06,23,12,41,20.80
2017,06,23,12,42,20.80
2017,06,23,12,43,20.70
2017,06,23,12,44,20.70
2017,06,23,12,45,20.60
2017,06,23,12,46,20.50
2017,06,23,12,47,20.50
2017,06,23,12,48,20.50
2017,06,23,12,49,20.50
2017,06,23,12,50,20.50
2017,06,23,12,51,20.50
2017,06,23,12,52,20.40
2017,06,23,12,53,20.40
2017,06,23,12,54,20.40
2017,06,23,12,55,20.50
2017,06,23,12,56,20.60
2017,06,23,12,57,20.60
2017,06,23,12,58,20.60
2017,06,23,12,59,20.60
2017,06,23,13,00,20.60
2017,06,23,13,01,20.70
2017,06,23,13,02,20.70
2017,06,23,13,03,20.70
2017,06,23,13,04,20.80
2017,06,23,13,05,20.80
2017,06,23,13,06,20.80
2017,06,23,13,07,20.80
2017,06,23,13,08,20.80
2017,06,23,13,09,20.80
2017,06,23,13,10,20.70
2017,06,23,13,11,20.70
2017,06,23,13,12,20.70
2017,06,23,13,13,20.70
2017,06,23,13,14,20.70
2017,06,23,13,15,20.70
2017,06,23,13,16,20.80
2017,06,23,13,17,20.90
2017,06,23,13,18,21.00
2017,06,23,13,19,21.20
2017,06,23,13,20,21.20
2017,06,23,13,21,21.20
2017,06,23,13,22,21.30
2017,06,23,13,23,21.30
2017,06,23,13,24,21.30
2017,06,23,13,25,21.40
2017,06,23,13,26,21.40
2017,06,23,13,27,21.40
2017,06,23,13,28,21.40
2017,06,23,13,29,21.40
2017,06,23,13,30,21.40
2017,06,23,13,31,21.40
2017,06,23,13,32,21.40
2017,06,23,13,33,21.40
2017,06,23,13,34,21.40
2017,06,23,13,35,21.40
2017,06,23,13,36,21.40
2017,06,23,13,37,21.40
2017,06,23,13,38,21.40
2017,06,23,13,39,21.40
2017,06,23,13,40,21.40
2017,06,23,13,41,21.50
2017,06,23,13,42,21.50
2017,06,23,13,43,21.60
2017,06,23,13,44,21.70
2017,06,23,13,45,21.80
2017,06,23,13,46,22.00
2017,06,23,13,47,22.10
2017,06,23,13,48,22.10
2017,06,23,13,49,22.10
2017,06,23,13,50,22.10
2017,06,23,13,51,22.10
2017,06,23,13,52,22.10
2017,06,23,13,53,22.10
2017,06,23,13,54,22.10
2017,06,23,13,55,22.10
2017,06,23,13,56,22.20
2017,06,23,13,57,22.20
2017,06,23,13,58,22.30
2017,06,23,13,59,22.30
2017,06,23,14,00,22.30
2017,06,23,14,01,22.40
2017,06,23,14,02,22.40
2017,06,23,14,03,22.40
2017,06,23,14,04,22.50
2017,06,23,14,05,22.50
2017,06,23,14,06,22.60
2017,06,23,14,07,22.60
2017,06,23,14,08,22.60
2017,06,23,14,09,22.70
2017,06,23,14,10,22.80
2017,06,23,14,11,22.80
2017,06,23,14,12,22.80
2017,06,23,14,13,22.80
2017,06,23,14,14,22.80
2017,06,23,14,15,22.80
2017,06,23,14,16,22.80
2017,06,23,14,17,22.90
2017,06,23,14,18,22.90
2017,06,23,14,19,23.00
2017,06,23,14,20,23.10
2017,06,23,14,21,23.10
2017,06,23,14,22,23.20
2017,06,23,14,23,23.20
2017,06,23,14,24,23.20
2017,06,23,14,25,23.20
2017,06,23,14,26,23.30
2017,06,23,14,27,23.30
2017,06,23,14,28,23.30
2017,06,23,14,29,23.30
2017,06,23,14,30,23.30
2017,06,23,14,31,23.30
2017,06,23,14,32,23.30
2017,06,23,14,33,23.40
2017,06,23,14,34,23.50
2017,06,23,14,35,23.50
2017,06,23,14,36,23.40
2017,06,23,14,37,23.30
2017,06,23,14,38,23.30
2017,06,23,14,39,23.30
2017,06,23,14,40,23.30
2017,06,23,14,41,23.40
2017,06,23,14,42,23.50
2017,06,23,14,43,23.50
2017,06,23,14,44,23.60
2017,06,23,14,45,23.60
2017,06,23,14,46,23.60
2017,06,23,14,47,23.60
2017,06,23,14,48,23.60
2017,06,23,14,49,23.60
2017,06,23,14,50,23.60
2017,06,23,14,51,23.60
2017,06,23,14,52,23.60
2017,06,23,14,53,23.60
2017,06,23,14,54,23.60
2017,06,23,14,55,23.60
2017,06,23,14,56,23.60
2017,06,23,14,57,23.60
2017,06,23,14,58,23.60
2017,06,23,14,59,23.60
2017,06,23,15,00,23.60
2017,06,23,15,01,23.60
2017,06,23,15,02,23.60
2017,06,23,15,03,23.70
2017,06,23,15,04,23.70
2017,06,23,15,05,23.70
2017,06,23,15,06,23.70
2017,06,23,15,07,23.70
2017,06,23,15,08,23.70
2017,06,23,15,09,23.60
2017,06,23,15,10,23.60
2017,06,23,15,11,23.60
2017,06,23,15,12,23.60
2017,06,23,15,13,23.60
2017,06,23,15,14,23.60
2017,06,23,15,15,23.50
2017,06,23,15,16,23.40
2017,06,23,15,17,23.40
2017,06,23,15,18,23.30
2017,06,23,15,19,23.20
2017,06,23,15,20,23.20
2017,06,23,15,21,23.20
2017,06,23,15,22,23.20
2017,06,23,15,23,23.30
2017,06,23,15,24,23.30
2017,06,23,15,25,23.20
2017,06,23,15,26,23.20
2017,06,23,15,27,23.20
2017,06,23,15,28,23.20
2017,06,23,15,29,23.20
2017,06,23,15,30,23.20
2017,06,23,15,31,23.30
2017,06,23,15,32,23.30
2017,06,23,15,33,23.40
2017,06,23,15,34,23.40
2017,06,23,15,35,23.40
2017,06,23,15,36,23.40
2017,06,23,15,37,23.50
2017,06,23,15,38,23.60
2017,06,23,15,39,23.60
2017,06,23,15,40,23.60
2017,06,23,15,41,23.60
2017,06,23,15,42,23.60
2017,06,23,15,43,23.60
2017,06,23,15,44,23.60
2017,06,23,15,45,23.60
2017,06,23,15,46,23.60
2017,06,23,15,47,23.70
2017,06,23,15,48,23.70
2017,06,23,15,49,23.70
2017,06,23,15,50,23.70
2017,06,23,15,51,23.80
2017,06,23,15,52,23.80
2017,06,23,15,53,23.80
2017,06,23,15,54,23.80
2017,06,23,15,55,23.90
2017,06,23,15,56,23.90
2017,06,23,15,57,24.00
2017,06,23,15,58,24.10
2017,06,23,15,59,24.10
2017,06,23,16,00,24.20
2017,06,23,16,01,24.30
2017,06,23,16,02,24.40
2017,06,23,16,03,24.50
2017,06,23,16,04,24.50
2017,06,23,16,05,24.60
2017,06,23,16,06,24.50
2017,06,23,16,07,24.50
2017,06,23,16,08,24.40
2017,06,23,16,09,24.40
2017,06,23,16,10,24.40
2017,06,23,16,11,24.50
2017,06,23,16,12,24.50
2017,06,23,16,13,24.60
2017,06,23,16,14,24.60
2017,06,23,16,15,24.60
2017,06,23,16,16,24.60
2017,06,23,16,17,24.60
2017,06,23,16,18,24.60
2017,06,23,16,19,24.60
2017,06,23,16,20,24.70
2017,06,23,16,21,24.80
2017,06,23,16,22,24.80
2017,06,23,16,23,24.90
2017,06,23,16,24,25.00
2017,06,23,16,25,25.10
2017,06,23,16,26,25.10
2017,06,23,16,27,25.10
2017,06,23,16,28,25.10
2017,06,23,16,29,25.10
2017,06,23,16,30,25.10
2017,06,23,16,31,25.00
2017,06,23,16,32,24.90
2017,06,23,16,33,24.90
2017,06,23,16,34,24.80
2017,06,23,16,35,24.80
2017,06,23,16,36,24.80
2017,06,23,16,37,24.80
2017,06,23,16,38,24.80
2017,06,23,16,39,24.90
2017,06,23,16,40,24.90
2017,06,23,16,41,24.90
2017,06,23,16,42,24.90
2017,06,23,16,43,25.00
2017,06,23,16,44,25.10
2017,06,23,16,45,25.10
2017,06,23,16,46,25.20
2017,06,23,16,47,25.20
2017,06,23,16,48,25.20
2017,06,23,16,49,25.20
2017,06,23,16,50,25.20
2017,06,23,16,51,25.30
2017,06,23,16,52,25.30
2017,06,23,16,53,25.30
2017,06,23,16,54,25.30
2017,06,23,16,55,25.30
2017,06,23,16,56,25.40
2017,06,23,16,57,25.40
2017,06,23,16,58,25.40
2017,06,23,16,59,25.30
2017,06,23,17,00,25.30
2017,06,23,17,01,25.30
2017,06,23,17,02,25.30
2017,06,23,17,03,25.30
2017,06,23,17,04,25.30
2017,06,23,17,05,25.30
2017,06,23,17,06,25.30
2017,06,23,17,07,25.30
2017,06,23,17,08,25.30
2017,06,23,17,09,25.30
2017,06,23,17,10,25.20
2017,06,23,17,11,25.20
2017,06,23,17,12,25.30
2017,06,23,17,13,25.30
2017,06,23,17,14,25.30
2017,06,23,17,15,25.30
2017,06,23,17,16,25.30
2017,06,23,17,17,25.30
2017,06,23,17,18,25.40
2017,06,23,17,19,25.40